Weather History for Smyrna, TN

Change the Weather History Date:

Wednesday, February 6, 2013

  Actual Average Record
Temperature  
Mean Temperature 44 °F -  
Max Temperature 57 °F 47 °F 72 °F (2008)
Min Temperature 30 °F 33 °F 17 °F (2000)
Degree Days  
Heating Degree Days 22    
Moisture  
Dew Point 33 °F    
Average Humidity 69    
Maximum Humidity 96    
Minimum Humidity 30    
Precipitation  
Precipitation 0.00 in - - ()
Sea Level Pressure  
Sea Level Pressure 30.21 in    
Wind  
Wind Speed 1 mph (North)    
Max Wind Speed 7 mph    
Max Gust Speed -    
Visibility 10 miles    
Events      
Averages and records for this station are not official NWS values.
T = Trace of Precipitation, MM = Missing Value Source: NWS Daily Summary

Daily Weather History Graph

Daily Weather History Graph

Search for Another Location

Airport:

Trip Planner

Search our weather history database for the weather conditions in past years. The results will help you decide how hot, cold, wet, or windy it might be!

Date:

Astronomy

Feb. 06, 2013 Rise Set
Actual Time 6:42 AM CST 5:18 PM CST
Civil Twilight 6:15 AM CST 5:45 PM CST
Nautical Twilight 5:45 AM CST 6:15 PM CST
Astronomical Twilight 5:15 AM CST 6:45 PM CST
Moon 3:21 AM CST (2/6) 1:39 PM CST (2/6)
Length of Visible Light 11h 29m
Length of Day
10h 36m
Waning Crescent, 17% of the Moon is Illuminated
Feb 6
Waning Crescent
Feb 10
New
Feb 17
First Quarter
Feb 25
Full
Mar 4
Last Quarter

Hourly Weather History & Observations

Time (CST) Temp. Dew Point Humidity Pressure Visibility Wind Dir Wind Speed Gust Speed Precip Events Conditions
12:56 AM 32.9 °F 30.0 °F 89% 30.13 in 10.0 mi Calm Calm - N/A   Clear
1:56 AM 32.9 °F 32.0 °F 96% 30.16 in 10.0 mi Calm Calm - N/A   Clear
2:56 AM 32.9 °F 30.0 °F 89% 30.17 in 10.0 mi Calm Calm - N/A   Clear
4:56 AM 30.0 °F 27.1 °F 89% 30.21 in 10.0 mi Calm Calm - N/A   Clear
5:56 AM 31.1 °F 28.0 °F 88% 30.22 in 10.0 mi Calm Calm - N/A   Clear
6:56 AM 32.9 °F 32.0 °F 96% 30.25 in 10.0 mi Calm Calm - N/A   Clear
7:56 AM 37.9 °F 34.9 °F 89% 30.26 in 10.0 mi Calm Calm - N/A   Clear
8:56 AM 43.9 °F 36.0 °F 74% 30.28 in 10.0 mi Calm Calm - N/A   Clear
9:56 AM 47.8 °F 36.0 °F 63% 30.28 in 10.0 mi Calm Calm - N/A   Clear
10:56 AM 50.9 °F 36.9 °F 59% 30.29 in 10.0 mi Calm Calm - N/A   Clear
11:56 AM 54.0 °F 36.0 °F 51% 30.27 in 10.0 mi Calm Calm - N/A   Clear
12:56 PM 55.9 °F 34.9 °F 45% 30.23 in 10.0 mi Calm Calm - N/A   Clear
1:56 PM 57.9 °F 31.1 °F 36% 30.22 in 10.0 mi North 6.9 mph - N/A   Clear
2:56 PM 57.9 °F 26.1 °F 30% 30.21 in 10.0 mi NNW 6.9 mph - N/A   Clear
3:56 PM 56.8 °F 30.0 °F 36% 30.20 in 10.0 mi North 4.6 mph - N/A   Clear
4:56 PM 52.9 °F 31.1 °F 43% 30.21 in 10.0 mi Calm Calm - N/A   Clear
5:56 PM 46.9 °F 32.9 °F 58% 30.19 in 10.0 mi Calm Calm - N/A   Clear
6:56 PM 43.9 °F 32.9 °F 65% 30.20 in 10.0 mi Calm Calm - N/A   Clear
7:56 PM 43.0 °F 34.0 °F 71% 30.21 in 10.0 mi Calm Calm - N/A   Clear
8:56 PM 41.0 °F 34.9 °F 79% 30.20 in 10.0 mi Calm Calm - N/A   Clear
9:56 PM 41.9 °F 34.0 °F 73% 30.20 in 10.0 mi Calm Calm - N/A   Clear
10:56 PM 41.0 °F 36.9 °F 85% 30.18 in 10.0 mi Calm Calm - N/A   Clear
11:56 PM 41.9 °F 36.0 °F 79% 30.16 in 10.0 mi Calm Calm - N/A   Clear